Weather in Šušanj

Montenegro     42°06′48″N   19°06′09″E
temp.,
°C
wind,
m/s
gust,
m/s
humid.,
%
clouds,
%
prec.,
mm/h
press.,
hPa
HPBL,
m
26 february, fri
fri2601:00+15wnw11743 0.0 103023
04:00+15ese11730 0.0 102923
07:00+14sse22720 0.0 102831
10:00+15ssw12730 0.0 102842
13:00+15wsw33680 0.0 102666
16:00+15wnw34690 0.0 102452
19:00+15nnw33690 0.0 102431
22:00+14wnw11750 0.0 102423
27 february, sat
sat2701:00+14se11760 0.0 102423
04:00+14ese22740 0.0 102231
07:00+14e11780 0.0 102230
10:00+14ssw11730 0.0 102260
13:00+14wsw22700 0.0 1021159
16:00+15nw55730 0.0 1021130
19:00+16ne56610 0.0 102352
22:00+14ne67650 0.0 1024146
28 february, sun
sun2801:00+13ne77600 0.0 1025281
04:00+12ne77590 0.0 1025332
07:00+11ne77560 0.0 1026313
10:00+12ne67520 0.0 1026391
13:00+14nne23480 0.0 1026428
16:00+14n44570 0.0 1026282
19:00+13ne55530 0.0 1028264
22:00+11ne66550 0.0 1029241
1 march, mon
mon101:00+10ne55550 0.0 1030219
04:00+10ene44520 0.0 1029193
07:00+10ne33470 0.0 1029205
10:00+11ene01380 0.0 1029382
13:00+11w33420 0.0 1029270
16:00+12nw55500 0.0 1027350
19:00+13nnw33540 0.0 1030250
22:00+13ene33500 0.0 1031222
2 march, tue
tue201:00+11ne66590 0.0 1032204
04:00+10ene54570 0.0 1032209
07:00+10ene43540 0.0 1033202
10:00+11e11450 0.0 1033367
13:00+11wsw32510 0.0 1032259
16:00+12nw55550 0.0 1032290
19:00+12nnw66620 0.0 1033290
22:00+13nnw45630 0.0 1034266